Find Starlink 35385

NORAD ID: 65906 Int'l Des: 2025-224 Owner: SPXS Country: US Constellation: starlink operational
LEOCIRCULAR

Aktuelle Ansicht

3D-Globus wird geladen...

Über Starlink 35385

Beschreibung wird geladen...

Nächste Überflüge

Passes for default location (London). Set your location on the main map for personalized predictions.

Höhenverlauf

Loading altitude history...

Zweizeiliger Elementsatz

1 65906U 25224AA 26150.15822676 .00038008 00000-0 11300-2 0 9998
2 65906 53.1612 351.7849 0001556 62.0367 298.0793 15.34409646 37341
Epoch: 30. Mai 2026 • Age: 7 hours

Aktueller Status

Höhe 463.1 km
Geschwindigkeit 7.64 km/s
Subsatellitenpunkt 8.26°N, 114.46°E
Startdatum 7. Okt. 2025
Alter 0.6 years
Typ internet

Technische Details

Klassifizierung Payload
Masse 575.00 kg
Trockenmasse 530.00 kg
Gesamtmasse 575.00 kg
Länge 0.30 m
Durchmesser 4.10 m
Spannweite 29.00 m
Form Box + pan
Hersteller SPXS
Bus-Typ Starlink V2MO
Phasenstatus In Orbit
Besitzer/Staat SPXS/US

Most Searched